Preview of NWS' New Version of Forecast
This preview is not operational and should not be used for support decisions.

Regional Weather Roundup (RWR)

Issued by National Weather Service (NWS)

                            
000
ASUS43 KLSX 250407
RWRMO 

WEATHER SUMMARY FOR MISSOURI
NATIONAL WEATHER SERVICE SPRINGFIELD MO
1100 PM CDT MON JUN 24 2019

NOTE: "FAIR" INDICATES FEW OR NO CLOUDS BELOW 12,000 FEET WITH NO
       SIGNIFICANT WEATHER AND/OR OBSTRUCTIONS TO VISIBILITY.
       CURRENT SKY AND/OR WEATHER CONDITIONS ARE NOT AVAILABLE FOR
       CHILLICOTHE AND FARMINGTON.

MOZ001>031-035>038-043-044-053-054-250500-
...NORTHERN AND WESTERN MISSOURI...
  
CITY           SKY/WX    TMP DP  RH WIND       PRES   REMARKS
KANSAS CTY INT PTCLDY    63  59  87 S9        29.87R                  
KANSAS C DTWN  CLEAR     72  58  61 S7        29.87R                  
LEE'S SUMMIT   CLEAR     70  58  65 S10       29.89R                  
ST JOSEPH      CLEAR     69  61  75 S3        29.85R                  
CHILLICOTHE      N/A     66  62  87 CALM      29.87R                  
KIRKSVILLE     CLEAR     67  59  75 SW5       29.87R                  
     
$$
MOZ066>068-077>081-088>096-101>105-250500-
...SOUTHWEST MISSOURI...
  
CITY           SKY/WX    TMP DP  RH WIND       PRES   REMARKS
SPRINGFIELD    CLEAR     64  58  80 S3        29.94R                  
JOPLIN         CLEAR     65  61  87 S5        29.94R                  
BRANSON        CLEAR     66  59  77 CALM      29.98R                  
               
$$
MOZ032>034-039>042-045>050-055>058-069>072-250500-
...CENTRAL MISSOURI...  
  
CITY           SKY/WX    TMP DP  RH WIND       PRES   REMARKS
COLUMBIA       CLEAR     66  59  78 SW7       29.90R                  
ROLLA          CLEAR     61  57  87 SW5       29.93R                  
SEDALIA        CLEAR     62  60  93 S7        29.91R                  
WHITEMAN AFB   CLEAR     65  61  87 S7        29.86R                  
WARRENSBURG    CLEAR     66  59  77 S6        29.90R                  
OSAGE BEACH    CLEAR     63  61  93 CALM      29.93R                  
               
$$
MOZ051-052-059>065-250500-
...EAST CENTRAL MISSOURI...
  
CITY           SKY/WX    TMP DP  RH WIND       PRES   REMARKS
ST LOUIS INTL  CLEAR     71  59  65 W6        29.89R                  
SPIRIT OF STL  CLEAR     67  63  87 CALM      29.88R                  
ST CHARLES       N/A    N/A N/A N/A MISG      29.87R                  
                   
$$
MOZ072>076-082>087-097>100-106>115-250500-
...SOUTH CENTRAL AND SOUTHEAST MISSOURI...
  
CITY           SKY/WX    TMP DP  RH WIND       PRES   REMARKS
CAPE GIRARDEAU FAIR      72  67  84 SW5       29.90R                  
FARMINGTON     CLEAR     65  61  87 CALM      29.93R                  
POPLAR BLUFF   FAIR      71  69  93 CALM      29.91R                  
WEST PLAINS    CLEAR     64  59  83 CALM      29.96R                  
                                       
$$